Location: Czerwionka
(50.1503°N, 18.6799°E)
Time: 19:41:06
(UTC+00:00)

Daily predictions for brighter satellites

Satellite Brightness Start Highest point End
(mag) Time Altitude Azimuth Time Altitude Azimuth Time Altitude Azimuth
Cosmos 1553 Rocket 4.1 18:40:21 10° S 18:46:22 63° E 18:52:32 10° NNE
Cosmos 1242 Rocket 3.8 18:51:31 10° SE 18:54:22 22° E 18:57:11 10° NE
OBJECT-B 2.2 18:52:43 10° S 18:55:47 39° W 18:58:53 10° NNW
Cosmos 1437 Rocket 2.9 18:53:01 10° S 18:56:47 53° E 19:00:38 10° NNE
CZ-4C R/B 3.5 18:50:52 10° NW 18:57:22 47° NNE 19:05:03 10° ESE
Resurs 01 Rocket 1.8 18:53:26 10° SSE 18:57:49 62° ENE 19:02:14 10° N
Cosmos 2082 Rocket 4.1 18:54:32 10° N 18:58:28 19° NE 19:02:23 10° E
Meteor 1-20 Rocket 4.4 18:53:05 10° N 18:58:40 57° ENE 19:04:07 10° SSE
Sich 1 3.2 18:56:39 10° N 19:00:55 57° ENE 19:05:12 10° SSE
Gbstr 26 Del rocket 4.4 18:53:43 10° WSW 19:01:45 84° SSE 19:08:45 10° ENE
Intercosmos 24 4.1 19:00:35 10° SSE 19:04:11 42° E 19:07:35 10° NNE
USA 306 3.7 19:00:52 10° WNW 19:05:01 50° N 19:09:12 10° E
Cosmos 1782 4.0 19:08:00 10° SE 19:11:21 26° E 19:14:41 10° NNE
ERS-1 Rocket 4.1 19:10:55 10° ESE 19:15:13 30° ENE 19:19:32 10° N
Cosmos 1503 Rocket 4.4 19:11:12 10° S 19:16:01 42° ESE 19:20:55 10° NE
SPOT 5 4.1 19:13:39 10° ESE 19:17:58 31° ENE 19:22:33 10° N
ERBS 4.4 19:21:48 10° WNW 19:24:41 27° NNW 19:27:35 10° NE
Cosmos 1151 Rocket 3.6 19:21:26 10° SSE 19:25:28 38° E 19:29:32 10° NNE
Cosmos 2278 Rocket 3.6 19:23:59 12° SE 19:26:52 18° E 19:30:31 10° ENE
Terra 3.2 19:23:30 11° ESE 19:27:06 26° ENE 19:31:00 10° N
USA 290 2.3 19:24:08 10° NNW 19:27:24 76° WSW 19:30:10 13° SSE
Cosmos 1602 3.8 19:23:59 10° N 19:27:49 60° ENE 19:31:09 13° SSE
Meteor 1-25 Rocket 4.3 19:22:30 10° NNW 19:28:22 89° ENE 19:34:14 10° S
Ariane Rocket 4.1 19:25:14 10° S 19:30:00 42° W 19:34:49 10° NNW
USA 307 3.6 19:26:12 10° WNW 19:30:24 53° N 19:34:37 10° E
CREW DRAGON DEMO-1 DEB 2.9 19:28:45 10° W 19:31:23 59° N 19:33:58 10° E
CZ-2C R/B 3.7 19:29:21 10° NNE 19:33:46 58° E 19:38:13 10° S
Cosmos 2263 Rocket 4.5 19:29:38 10° WSW 19:34:24 28° NW 19:39:14 10° NNE
Cosmos 1606 4.1 19:32:44 10° SW 19:36:17 39° WNW 19:39:53 10° N
Cosmos 1844 Rocket 2.8 19:33:08 10° SSW 19:38:43 83° WNW 19:44:21 10° NNE
SPOT 1/Viking Rocket 3.6 19:36:09 12° SSE 19:41:04 85° ENE 19:46:19 10° NNW
MetOp-B 4.3 19:37:02 10° SSE 19:42:23 78° WSW 19:47:46 10° NNW
SL-4 R/B 4.0 19:38:59 10° W 19:42:24 22° SW 19:45:35 12° S
USA 308 3.5 19:39:42 10° WNW 19:43:56 57° NNE 19:48:11 10° E
Cosmos 2084 4.4 19:41:37 14° SSE 19:44:15 24° ESE 19:47:41 10° ENE
ARIANE 5 R/B 2.6 19:43:08 17° SSE 19:46:27 67° ENE 19:50:47 10° N
X-37B 1.7 19:43:54 10° WSW 19:46:44 29° S 19:47:53 23° SSE
Cosmos 1354 Rocket 4.0 19:42:03 10° S 19:47:13 64° ESE 19:52:25 10° NNE
Cosmos 1633 Rocket 3.0 19:46:17 10° N 19:50:42 90° NNW 19:54:17 16° S
NOSS 3-4 (A) 4.4 19:46:20 10° NW 19:52:53 52° NE 19:59:37 12° ESE
NOSS 3-4 (C) 4.4 19:46:26 10° NW 19:52:59 51° NE 19:59:44 12° ESE
Cosmos 1709 Rocket 4.0 19:47:50 10° N 19:54:00 82° W 19:59:47 12° S
SPOT 3 Rocket 4.3 19:49:46 10° S 19:54:44 48° W 19:59:45 10° NNW
Cosmos 1437 2.9 19:54:18 28° SE 19:55:17 40° E 19:58:00 10° NNE
Meteor 1-5 Rocket 4.4 19:51:00 10° N 19:56:22 55° ENE 19:59:56 20° SE
Cosmos 1812 3.4 19:56:30 23° SE 19:58:20 37° E 20:01:55 10° NNE
Cosmos 1844 4.0 19:53:16 10° SW 19:58:59 74° WNW 20:04:41 10° NNE
Cosmos 1470 Rocket 3.6 19:55:24 10° N 19:59:53 68° ENE 20:02:47 21° SSE
Cosmos 2074 Rocket 4.4 19:54:20 10° N 20:00:27 49° ENE 20:04:40 20° SE
ATLAS 5 CENTAUR R/B 2.7 19:55:30 10° NW 20:00:57 58° SW 20:05:41 18° SSE
Cosmos 1328 Rocket 3.5 19:59:49 14° S 20:03:40 75° E 20:08:07 10° NNE
NOSS 3-3 (A) 4.0 19:58:18 10° SSW 20:03:51 52° ESE 20:10:13 10° NE
NOSS 3-3 (C) 4.0 19:58:24 10° SSW 20:03:58 52° ESE 20:10:19 10° NE
Akebono 3.9 20:01:41 10° NNW 20:04:18 78° WSW 20:04:50 45° S
ATLAS 2AS CENTAUR R/B 3.7 19:59:08 10° NW 20:06:21 44° NNE 20:13:03 10° E
Meteor 1-26 Rocket 4.3 20:03:50 10° SSW 20:09:33 83° WNW 20:15:08 10° N
CARTOSAT-1 3.6 20:07:01 20° S 20:09:58 81° WSW 20:14:18 10° NNW
Cosmos 1833 Rocket 2.8 20:04:42 10° NNW 20:10:23 73° ENE 20:14:00 23° SE
Meteor 1-14 Rocket 4.3 20:05:56 10° NNW 20:11:53 84° W 20:16:14 18° S
Cosmos 2315 Rocket 4.1 20:05:48 10° S 20:12:10 85° W 20:18:37 10° N
Cosmos 1933 Rocket 3.6 20:10:07 10° N 20:14:26 63° ENE 20:16:40 27° SSE
BREEZE-M R/B 1.7 20:12:28 10° WSW 20:14:51 55° SSE 20:15:12 48° SE
Cosmos 1666 2.9 20:12:10 10° N 20:15:52 54° ENE 20:17:20 31° SE
USA 215 4.0 20:10:35 10° E 20:16:53 53° N 20:23:11 10° WNW
Cosmos 1538 Rocket 4.1 20:15:06 10° NNW 20:20:31 74° ENE 20:23:35 26° SE
USA 245 4.2 20:23:48 17° SW 20:24:36 20° W 20:26:23 10° NW
Iridium 4 Rocket 3.8 20:22:02 22° SSE 20:25:45 68° E 20:31:39 10° N
USA 305 2.9 20:21:50 10° WNW 20:26:07 78° NNE 20:28:37 24° ESE
Cosmos 1242 Rocket 4.4 20:25:53 10° SW 20:29:03 29° WNW 20:32:13 10° N
Cosmos 158 Rocket 4.1 20:28:30 10° NNW 20:33:21 59° ENE 20:35:40 29° SE
BREEZE M DEB (TANK) 1.6 20:30:32 10° W 20:34:07 50° SSW 20:34:07 50° SSW
Resurs 01 Rocket 4.1 20:31:45 10° SW 20:34:43 17° W 20:37:43 10° NW
Spot 2 Rocket 4.4 20:34:12 16° SSW 20:37:55 43° W 20:42:44 10° NNW
Cosmos 1680 Rocket 4.4 20:33:18 10° NNW 20:38:21 41° ENE 20:41:08 23° ESE
Meteor 1-27 Rocket 4.3 20:36:14 28° SE 20:38:47 43° E 20:44:19 10° NNE
SJ 16-02 1.6 20:38:19 35° SSE 20:39:45 48° ESE 20:44:02 10° NNE
COSMOS 2406 3.3 20:35:04 10° NNW 20:40:43 72° WSW 20:43:43 29° SSE
Cosmos 2228 Rocket 3.4 20:40:06 35° SE 20:41:27 47° E 20:45:44 10° NNE
Cosmos 2082 Rocket 2.3 20:37:59 10° NNW 20:43:38 70° ENE 20:46:29 30° SE
Meteor 2-6 Rocket 4.1 20:41:13 21° S 20:44:58 90° ENE 20:50:31 10° NNE
Cosmos 1500 4.5 20:41:46 10° NNW 20:45:13 34° W 20:47:10 20° SW
USA 306 2.8 20:40:57 10° WNW 20:45:15 89° SSW 20:47:01 35° ESE
CZ-4C R/B 3.1 20:39:18 10° NW 20:46:25 67° SW 20:51:18 26° SSE
Gbstr 26 Del rocket 4.3 20:41:44 10° W 20:49:27 78° N 20:55:50 10° E
ERS-1 Rocket 3.7 20:50:52 22° SSW 20:53:49 46° W 20:58:41 10° NNW
deb Kosmos-1763 4.2 20:51:09 10° NNW 20:54:39 60° WSW 20:55:19 48° SSW
SL-24 DEB 4.1 20:53:26 36° S 20:55:17 87° E 20:59:55 10° N
SPOT 5 3.8 20:52:52 22° SSW 20:55:51 46° W 21:00:54 10° NNW
H-2A R/B 3.4 20:51:44 10° NNE 20:55:57 85° WNW 20:57:49 33° SSW
Meteor 1-11 Rocket 3.8 20:53:46 10° NNW 20:59:47 87° W 21:02:44 32° S
ERBS 4.3 20:58:37 10° NW 21:01:29 27° N 21:04:20 10° ENE
Cosmos 1271 Rocket 2.7 21:00:22 41° SSW 21:01:41 86° WNW 21:05:44 10° NNE
Cosmos 1777 Rocket 4.3 20:58:40 11° SW 21:03:33 66° WNW 21:08:45 10° NNE
Terra 2.4 21:02:23 28° SSW 21:04:36 49° W 21:09:15 10° NNW
CREW DRAGON DEMO-1 DEB 4.1 21:03:09 10° WNW 21:04:38 28° W 21:04:38 28° W
Cosmos 2278 Rocket 2.2 21:05:44 17° SSW 21:10:11 86° WNW 21:15:54 10° NNE
USA 307 2.8 21:06:17 10° WNW 21:10:34 70° SSW 21:11:25 53° SSE
Cosmos 1340 Rocket 3.0 21:09:16 10° N 21:13:20 62° ENE 21:14:05 51° SE
Cosmos 923 Rocket 3.9 21:08:20 10° NNW 21:13:37 90° SSE 21:15:32 41° SSE
Spot 4 4.2 21:14:20 37° SE 21:15:57 55° ENE 21:20:43 10° N
Cosmos 1898 Rocket 4.1 21:17:24 36° SE 21:18:21 40° ESE 21:23:18 10° NE
Cosmos 1544 2.8 21:17:04 10° N 21:20:41 84° E 21:20:56 76° SE
Cosmos 2369 Rocket 4.0 21:21:42 15° E 21:21:53 15° E 21:24:54 10° ENE
Cosmos 1869 Rocket 3.8 21:18:28 10° NNW 21:22:45 61° W 21:23:54 44° SSW
Cosmos 1536 2.9 21:18:58 10° NNW 21:23:01 67° W 21:23:48 52° SSW
Cosmos 2084 4.0 21:19:20 10° WSW 21:23:27 57° NW 21:27:41 10° NE
USA 308 2.9 21:19:46 10° WNW 21:24:01 60° SSW 21:24:24 57° S
SL-8 Rocket 4.3 21:18:02 10° N 21:24:17 56° ENE 21:26:56 34° SE
Cosmos 2154 Rocket 4.3 21:23:43 10° NNW 21:29:59 62° W 21:33:02 31° SSW
Cosmos 1943 Rocket 3.0 21:30:25 30° ESE 21:31:01 31° ESE 21:35:53 10° NE
Cosmos 2084 Rocket 4.2 21:31:02 10° NW 21:35:10 49° NE 21:36:50 31° E
Cosmos 1975 3.8 21:32:20 10° N 21:35:59 33° ENE 21:36:27 32° E
ALOS 2 3.1 21:38:42 42° ESE 21:39:38 50° ENE 21:43:54 10° N
Cosmos 44 3.5 21:34:58 10° NW 21:40:28 78° NE 21:42:24 41° SE
Cosmos 990 Rocket 3.9 21:40:01 47° S 21:41:30 72° ESE 21:46:45 10° NNE
Cosmos 1707 Rocket 3.4 21:42:54 61° S 21:43:39 86° E 21:48:05 10° N
NOSS 3-4 (A) 4.1 21:37:15 10° NW 21:44:01 55° WSW 21:47:02 35° S
NOSS 3-4 (C) 4.1 21:37:21 10° NW 21:44:08 56° SW 21:47:09 35° S
Cosmos 962 Rocket 4.5 21:43:20 10° NNW 21:49:28 73° W 21:51:48 39° S
Cosmos 2112 Rocket 4.1 21:47:06 10° NNW 21:52:26 68° WSW 21:53:50 48° S
Cosmos 1833 Rocket 4.3 21:49:33 10° NW 21:53:44 22° W 21:55:42 18° SW
SL-24 R/B - RUBIN 2 3.9 21:49:45 10° NW 21:55:23 82° SW 21:56:38 52° SSE
Cosmos 1238 Rocket 3.8 21:49:23 10° N 21:55:53 87° W 21:57:51 45° S
Cosmos 1959 Rocket 4.5 21:49:43 10° N 21:56:01 76° E 21:58:15 42° SSE
Cosmos 1743 3.1 21:52:55 10° NNW 21:56:40 51° W 21:56:52 50° WSW
ATLAS 2AS CENTAUR R/B 2.8 21:50:26 10° NW 21:57:49 70° SW 22:00:31 40° SSE
SeaSat 1 3.8 21:54:40 10° NE 21:58:33 24° ESE 21:58:33 24° ESE
USA 215 3.2 21:55:02 21° ESE 21:59:38 87° NNE 22:06:13 10° WNW
BREEZE-M DEB (TANK) 2.9 21:59:27 10° W 22:04:26 58° N 22:04:40 55° NNE
Cosmos 2297 3.6 22:03:58 47° S 22:05:35 72° ESE 22:11:16 10° NNE
USA 305 4.2 22:02:02 10° WNW 22:04:41 27° WSW 22:04:41 27° WSW
Cosmos 2181 Rocket 3.9 22:07:22 43° S 22:09:33 85° E 22:15:43 10° N
Cosmos 1733 Rocket 3.4 22:11:22 10° NNW 22:15:35 51° W 22:16:02 49° WSW
SJ 16-02 3.4 22:15:15 11° WSW 22:18:35 24° NW 22:22:14 10° N
Cosmos 1680 Rocket 4.4 22:15:35 10° NW 22:20:24 36° WSW 22:21:27 33° SW
Cosmos 2366 rocket 4.0 22:15:54 10° NNW 22:22:03 74° W 22:24:07 44° SSW
Cosmos 1821 Rocket 4.4 22:17:21 10° N 22:23:41 58° ENE 22:26:15 35° SE
Cosmos 1937 Rocket 3.4 22:24:06 51° SSW 22:25:26 84° WNW 22:30:39 10° NNE
Cosmos 1818 3.5 22:20:57 10° NW 22:26:27 73° SW 22:27:40 53° S
Thor Agena Rocket 3.8 22:21:39 10° NNE 22:26:47 54° E 22:27:48 47° SE
Cosmos 2082 Rocket 3.7 22:22:55 10° NW 22:27:11 22° WSW 22:28:19 21° WSW
Cosmos 1908 Rocket 3.5 22:22:54 10° N 22:27:25 82° ENE 22:27:56 69° SSE
Cosmos 967 Rocket 4.3 22:27:43 41° SSW 22:30:07 81° SE 22:36:26 10° NE
Cosmos 1048 Rocket 4.4 22:28:34 10° NNW 22:33:53 60° ENE 22:35:46 38° SE
Cosmos 1900 4.3 22:33:48 54° SW 22:35:00 88° SE 22:40:06 10° NE
Gbstr 26 Del rocket 3.8 22:29:46 10° WNW 22:36:54 75° SSW 22:40:00 30° SE
Nimbus 7 Rocket 4.3 22:31:44 10° NNE 22:37:39 81° ESE 22:39:29 47° S
ERBS 3.2 22:34:41 10° NW 22:37:05 43° NW 22:37:05 43° NW
Cosmos 2218 Rocket 4.4 22:33:54 10° NNW 22:39:58 54° W 22:42:06 38° SW
Cosmos 1356 Rocket 4.2 22:36:49 10° N 22:40:54 44° ENE 22:41:40 39° ESE
USA 281 4.2 22:36:11 12° ESE 22:41:54 42° NE 22:48:00 10° NNW
Meteor 1-19 Rocket 4.4 22:40:49 41° SW 22:42:31 61° WNW 22:47:53 10° N
Cosmos 1461 3.1 22:53:28 63° SE 22:53:44 64° SE 22:58:20 10° NE
Cosmos 2278 Rocket 4.4 22:50:46 10° W 22:55:07 22° NW 22:59:30 10° NNE
Cosmos 1703 Rocket 3.4 22:57:18 72° SSW 22:57:43 85° WNW 23:02:09 10° N
Cosmos 1782 Rocket 3.4 22:54:19 10° N 22:58:48 86° W 22:59:17 71° S
Nadezhda 3 Rocket 3.9 23:02:11 44° S 23:04:19 83° E 23:10:35 10° N
Cosmos 1378 3.3 23:04:38 61° ENE 23:04:38 61° ENE 23:08:06 10° NNE
Cosmos 2369 Rocket 2.1 23:03:27 50° SSW 23:05:00 83° ESE 23:10:41 10° NNE
Cosmos 2150 Rocket 4.2 23:04:47 48° SSE 23:05:54 58° ESE 23:11:08 10° NNE
Cosmos 44 Rocket 4.3 23:01:08 10° NNW 23:06:13 48° NE 23:10:51 12° ESE
RESURS DK-1 2.2 23:05:23 10° NNW 23:09:34 87° ENE 23:09:53 76° SE
Lacrosse 5 4.2 23:11:02 10° ESE 23:11:02 10° ESE 23:11:08 10° ESE
Meteor 1-13 Rocket 4.2 23:09:32 48° S 23:11:04 75° E 23:16:37 10° NNE
Meteor 1-12 Rocket 4.2 23:05:21 10° NNW 23:11:18 83° W 23:13:07 47° S
Gblst 52 Del rocket 4.3 23:04:47 10° WNW 23:11:24 66° SSW 23:14:42 27° SE
Cosmos 1975 4.4 23:09:04 10° NW 23:12:12 24° W 23:12:12 24° W
SL-27 R/B 2.8 23:10:30 10° NNW 23:13:17 58° N 23:13:17 58° N
Cosmos 1805 3.5 23:10:20 10° N 23:14:12 57° ENE 23:14:33 54° ESE
Cosmos 1943 Rocket 2.7 23:11:55 29° WSW 23:14:32 52° NW 23:20:02 10° NNE
ALOS 2 4.3 23:16:05 21° W 23:16:15 21° W 23:19:34 10° NW
Cosmos 1733 3.7 23:12:38 10° N 23:16:20 48° ENE 23:16:42 46° E
PSLV R/B 3.4 23:13:22 10° NNE 23:17:51 89° ESE 23:18:26 67° SSW
Cosmos 1867 3.7 23:18:57 48° SSE 23:20:03 58° ESE 23:25:26 10° NE
Cosmos 1766 4.0 23:16:31 10° N 23:20:23 46° ENE 23:21:04 41° ESE
Cosmos 1607 4.1 23:19:25 43° S 23:21:30 64° ESE 23:27:55 10° NE
Meteor 2-4 Rocket 4.2 23:20:31 35° SW 23:22:36 51° WNW 23:28:07 10° N
DNEPR-1 R/B 4.4 23:19:57 28° WSW 23:22:43 59° NW 23:27:28 10° NE
Cosmos 2263 4.2 23:22:37 46° SSW 23:24:26 85° ESE 23:30:17 10° NNE
EO 1 Del DPAF 3.1 23:23:50 10° N 23:27:34 75° WNW 23:27:38 75° W
Okean 3 3.3 23:28:08 67° SW 23:28:38 78° W 23:32:54 10° N
Cosmos 1066 Rocket 4.2 23:26:45 45° S 23:28:38 80° E 23:34:20 10° NNE
Cosmos 1605 Rocket 4.2 23:22:46 10° N 23:28:58 64° ENE 23:32:12 30° SSE
Meteor 1-23 Rocket 4.5 23:28:21 39° SSE 23:30:23 63° E 23:36:10 10° NNE
Okean 1-7 3.7 23:30:15 38° W 23:30:53 41° WNW 23:34:58 10° N
Helios 1A 3.0 23:31:38 58° SE 23:32:22 78° ENE 23:36:33 10° NNW
ATLAS CENTAUR R/B 2.0 23:33:01 37° ESE 23:33:01 37° ESE 23:36:07 10° NE
Cosmos 1400 Rocket 4.1 23:30:52 10° N 23:34:43 36° ENE 23:36:19 26° ESE
Sich 1 Rocket 3.6 23:30:14 10° NNW 23:34:49 75° W 23:35:34 60° SSW
Okean 1 Rocket 4.4 23:32:05 10° N 23:36:08 33° ENE 23:38:20 21° ESE
SeaSat 1 2.7 23:31:39 10° NNE 23:36:32 62° NW 23:38:19 37° WSW
Cosmos 1125 Rocket 3.4 23:35:51 50° S 23:37:16 81° ESE 23:42:31 10° NNE
NOSS 2-1 (E) 4.4 23:32:55 10° NW 23:37:35 67° NE 23:44:13 10° SE
Cosmos 494 Rocket 4.1 23:34:06 10° NNW 23:39:13 58° WSW 23:40:14 48° SSW
USA 81 4.1 23:35:08 10° N 23:40:28 75° E 23:42:25 40° SSE
Cosmos 1656 Rocket 3.6 23:39:04 44° SW 23:40:51 84° WNW 23:46:26 10° NNE
Cosmos 1470 4.3 23:38:44 10° N 23:42:13 30° ENE 23:43:58 21° ESE
USA 215 3.7 23:42:21 35° SSW 23:43:07 36° SW 23:49:04 10° WNW
Cosmos 1833 4.5 23:40:39 10° NW 23:46:12 50° WSW 23:47:33 42° SSW
ATLAS 2AS CENTAUR R/B 4.3 23:43:11 10° WNW 23:47:24 17° WSW 23:47:57 17° WSW
Cosmos 2227 Rocket 4.2 23:44:25 10° NNW 23:49:13 27° NE 23:53:59 10° E
Cosmos 1674 Rocket 4.2 23:49:59 38° SE 23:51:14 49° E 23:55:33 10° NNE
CZ-2D R/B 3.2 23:46:22 10° NNE 23:51:25 37° E 23:53:55 24° SE
Cosmos 2297 Rocket 3.8 23:47:57 10° NNW 23:53:06 34° NE 23:58:13 10° ESE
